Regional Weather Roundup
Issued by NWS Grand Forks, ND

Home | Current Version | Previous Version | Text Only | Print | Product List | Glossary Off
Versions: 1 2 3 4 5 6 7 8 9 10 11 12 13 14 15 16 17 18 19 20 21 22 23 24 25 26 27 28 29 30 31 32 33 34 35 36 37 38 39 40 41 42 43 44 45 46 47 48 49 50

000
ASUS43 KFGF 291710
RWRFGF
PRAIRIE TO PINES  WEATHER ROUNDUP
NATIONAL WEATHER SERVICE EASTERN NORTH DAKOTA/GRAND FORKS ND
1200 PM CDT MON MAY 29 2017

 **SATELLITE DATA USED TO AUGMENT SKY COVER AT AUTOMATED STATIONS**
 *****  WEATHER ACROSS EASTERN NORTH DAKOTA  *****

CITY           SKY/WX    TMP DP  RH WIND       PRES   REMARKS
GRAND FORKS    CLOUDY    59  52  77 NW18      29.85F
GRAND FRKS AFB CLOUDY    56  49  77 N14G26    29.87R
DEVILS LAKE    CLOUDY    55  42  61 NW20G30   29.92R
FARGO          CLOUDY    56  49  77 N17       29.88S
WAHPETON ARPT  CLOUDY    52  46  82 NW15G26   29.91R
$$

 ***** WEATHER ACROSS CENTRAL AND WESTERN NORTH DAKOTA  *****

CITY           SKY/WX    TMP DP  RH WIND       PRES   REMARKS
BISMARCK       CLOUDY    60  41  49 NW23G30   30.04R
MINOT          CLOUDY    59  39  47 NW23G32   30.01S
JAMESTOWN      LGT RAIN  55  47  74 NW16G26   29.94S
MINOT AFB      PTSUNNY   57  41  55 NW23G30   30.00S
GARRISON         N/A     57  38  48 N29G39    30.02F
WILLISTON      PTSUNNY   62  37  39 NW25G31   30.12F
DICKINSON      FAIR      60  34  37 NW21G30   30.09S
HETTINGER      FAIR      61  36  39 NW21G31   30.12S
$$

 *****  OTHER AIRPORT OBSERVATIONS IN OUR AREA  *****

CITY           SKY/WX    TMP DP  RH WIND       PRES   REMARKS
WALHALLA       NOT AVBL
GRAFTON AIRPOR PTSUNNY   57  50  77 N21       29.86F
VALLEY CITY AR PTSUNNY   55  52  88 NW21      29.94S
CANDO          NOT AVBL
CAVALIER APRT  CLOUDY    54  48  82 N17G24    29.86S
GWINNER        CLOUDY    55  50  82 MISG      29.94R
SHEYENNE NWR     N/A     56  49  78 NW12      29.95S
ROLLA          CLOUDY    54  45  71 NW20G33   29.93S
 ***** THE ABOVE OBSERVATIONS ARE NON NWS ARE NOT QUALITY
       CONTROLLED AND MAY MIS-REPORT RAIN FOR SNOW...
$$

  *****  WEATHER ACROSS NORTHERN MINNESOTA  *****

CITY           SKY/WX    TMP DP  RH WIND       PRES   REMARKS
FLAG ISLAND    CLOUDY    52  43  71 NW23      29.74R
WARROAD        CLOUDY    52  45  76 NW21G28   29.78R
ROSEAU         PTSUNNY   54  46  76 NW16      29.79S
HALLOCK        CLOUDY    54  48  82 NW17G24   29.83S
THF RVR FALLS  CLOUDY    52  45  77 NW14      29.84R
BAUDETTE       CLOUDY    50  45  83 NW17G25   29.75R
WASKISH        CLOUDY    52  46  82 NW14      29.76S
CROOKSTON      CLOUDY    52  50  93 NW9       29.86S
STEPHEN NDAWN    N/A     54  48  82 NW12        N/A
GREENBUSH NDAW   N/A     52  46  82 NW16        N/A
$$
  *****  WEATHER ACROSS CENTRAL AND WEST MINNESOTA  *****

CITY           SKY/WX    TMP DP  RH WIND       PRES   REMARKS
FOSSTON        CLOUDY    48  43  81 NW18G28   29.84R
BEMIDJI        CLOUDY    51  44  78 NW20      29.79R
PARK RAPIDS    CLOUDY    53  42  66 NW17G26   29.80R
ELBOW LAKE     CLOUDY    53  48  83 NW20G25   29.88S
WADENA         PTSUNNY   54  46  76 NW17G23   29.82R
DETROIT LAKES  PTSUNNY   48  45  87 NW15      29.87R
MOORHEAD       FAIR      55  48  76 N23       29.89S
FERGUS FALLS   CLOUDY    52  52 100 N16G26    29.87R
MORRIS MN      PTSUNNY   57  46  67 NW22G29   29.88R
STAPLES        CLOUDY    55  46  71 NW18      29.80F
$$
  *****  WEATHER ELSEWHERE ACROSS MINNESOTA  *****

CITY           SKY/WX    TMP DP  RH WIND       PRES   REMARKS
DULUTH         LGT RAIN  56  48  74 W14G26    29.69R
INTRNTL FALLS  CLOUDY    52  49  89 W12       29.70R FOG
ELY            LGT RAIN  50  48  93 W12G21    29.66R
CLOQUET        CLOUDY    55  45  67 W13G23    29.71S
WHEATON        PTSUNNY   57  46  67 NW16G23   29.92R
BRAINERD       CLOUDY    55  47  74 W13G22    29.80R
HIBBING        LGT RAIN  50  48  93 W14G21    29.71R
ALEXANDRIA     CLOUDY    57  48  72 NW15      29.86R
SAINT CLOUD    CLOUDY    58  48  69 NW14      29.81R
MINNEAPOLIS    LGT RAIN  59  50  72 W15       29.82R
$$

  *****  WEATHER ACROSS SOUTH DAKOTA  *****

CITY           SKY/WX    TMP DP  RH WIND       PRES   REMARKS
SIOUX FALLS    PTSUNNY   62  47  57 NW17G31   29.98R
BROOKINGS      CLOUDY    56  48  74 NW18      29.97R
WATERTOWN      CLOUDY    56  48  74 NW18      29.95R
HURON          CLOUDY    57  44  62 NW17G26   30.02R
SISSETON         N/A     53  51  93 NW18G32   29.92R
ABERDEEN       CLOUDY    56  42  59 NW20G29   29.99R
MITCHELL       CLOUDY    63  44  50 NW20G28   30.03R
PIERRE         PTSUNNY   64  40  41 NW20G31   30.06F
MOBRIDGE       PTSUNNY   62  39  42 NW23G32   30.02S
RAPID CITY     FAIR      63  35  35 N21G30    30.15F
$$

  *****  SOME WEATHER IN NEARBY STATES *****

CITY           SKY/WX    TMP DP  RH WIND       PRES   REMARKS
GLASGOW MT     FAIR      62  36  37 NW15G25   30.20F
GREAT FALLS MT FAIR      65  47  52 E3        30.20F
CHEYENNE WY    CLOUDY    60  36  40 N8        30.28S
SCOTTSBLUFF NE PTSUNNY   69  37  30 N16G31    30.20S
OMAHA NE       FAIR      74  43  32 NW17G24   30.00R
DES MOINES IA  FAIR      72  44  36 W16G29    29.94S
DAVENPORT IA   FAIR      72  44  36 W18G30    29.90R
CHICAGO IL     FAIR      74  46  36 W22G31    29.82R
EAU CLAIRE WI  CLOUDY    58  47  66 W12       29.77R
LA CROSSE WI   CLOUDY    62  47  57 W16       29.82R
$$

  *****  SOME NATIONAL WEATHER *****

CITY           SKY/WX    TMP DP  RH WIND       PRES   REMARKS
LA GUARDIA NY  LGT RAIN  57  53  86 NE15      29.98R
RALEIGH NC     PTSUNNY   84  62  47 VRB5      29.98R
ATLANTA GA     PTSUNNY   83  68  60 W9        30.05S
NEW ORLEANS LA CLOUDY    81  67  62 SW3       30.04R
OKLAHOMA CITY  FAIR      82  48  30 SW6       30.09R
ALBUQUERQUE NM FAIR      72  37  28 VRB5      30.22F
SALT LAKE CITY FAIR      74  43  32 VRB6      30.15S
LOS ANGELES CA CLOUDY    60  56  86 SW8       29.94S
BOISE ID       FAIR      75  43  31 VRB5      30.11F
SEATTLE WA     CLOUDY    53  51  93 CALM      30.06F FOG
$$

*** WEATHER ACROSS MANITOBA...SASKATCHEWAN AND ONTARIO ***
                ***ONTARIO***

CITY           SKY/WX    TMP DP  RH WIND       PRES   REMARKS
GERALDTON      CLOUDY    57  50  77 SW6       29.52S
THUNDER BAY    LGT RAIN  54  52  94 W5        29.56R
SIOUX LOOKOUT  LGT RAIN  54  50  87 NW10      29.60R
TORONTO        PTSUNNY   75  54  46 W20G26    29.75S
BIG TROUT LK   LGT RAIN  48  48 100 NW12G17   29.56F
PICKLE LAKE    LGT RAIN  54  52  94 NW8       29.55S FOG
DRYDEN         CLOUDY    54  48  82 NW14      29.64R
KENORA         CLOUDY    48  43  81 NW13G21   29.72R
$$
                *** MANITOBA***

CITY           SKY/WX    TMP DP  RH WIND       PRES   REMARKS
BRANDON        CLOUDY    52  45  76 NW18      29.92F
DAUPHIN        PTSUNNY   50  43  76 N20G39    29.93S
ISLAND LAKE    CLOUDY    43  41  93 N12G20    29.75S
PILOT MOUND      N/A     52  45  76 NW20G28     N/A
THE PAS        LGT RAIN  43  37  81 N18G28    30.01S
THOMPSON       CLOUDY    39  37  93 N14G20    29.90S
WINNIPEG       CLOUDY    50  43  76 NW18G28   29.84S
LYNN LAKE      LGT RAIN  41  39  93 N12G20    30.07S
CHURCHILL      CLOUDY    37  34  87 N16       29.92S
GILLAM         PTSUNNY   39  36  87 N13       29.83S
$$
                ***SASKATCHEWAN***

CITY           SKY/WX    TMP DP  RH WIND       PRES   REMARKS
ESTEVAN        PTSUNNY   61  39  44 NW29G39   30.06F
KINDERSLEY     MOSUNNY   59  34  38 VRB6      30.21F
LLOYDMINSTER   MOSUNNY   59  32  36 N10       30.23F
PRINCE ALBERT  MOSUNNY   61  34  36 N15G24    30.12F
REGINA         PTSUNNY   59  34  38 N24G33    30.11F
YORKTON          N/A     55  41  58 N21G30    30.01S
N. BATTLEFORD  SUNNY     63  32  31 N20       30.21F
LA RONGE       PTSUNNY   54  36  50 NW13G21   30.17S
SASKATOON      MOSUNNY   63  30  29 NW23G29   30.17F
SWIFT CURRENT  MOSUNNY   59  34  38 NW14G24   30.19F
$$
NOTE: THESE ARE AUTOMATED STATIONS WITH LIMITED QUALITY CONTROL
      "FAIR" INDICATES FEW OR NO CLOUDS BELOW 12,000 FEET WITH NO
      SIGNIFICANT WEATHER AND/OR OBSTRUCTIONS TO VISIBILITY.
      SKY/WX - SKY CONDITION AND SIGNIFICANT WEATHER.
      TMP - AIR TEMPERATURE.    DP   - DEWPOINT TEMPERATURE.
      RH  - RELATIVE HUMIDITY.  PRES - PRESSURE.
      HX  - HEAT INDEX.         WCI  - WIND CHILL INDEX.
$



USA.gov is the U.S. government's official web portal to all federal, state and local government web resources and services.